TimeEDT,TemperatureF,Dew PointF,Humidity,Sea Level PressureIn,VisibilityMPH,Wind Direction,Wind SpeedMPH,Gust SpeedMPH,PrecipitationIn,Events,Conditions,WindDirDegrees,DateUTC
12:30 AM,62.6,60.8,94,30.04,10.0,Calm,Calm,-,N/A,,Overcast,0,2013-10-05 04:30:00
12:53 AM,62.1,59.0,90,30.04,10.0,North,4.6,-,0.00,Rain,Light Rain,350,2013-10-05 04:53:00
1:19 AM,62.6,59.0,88,30.04,10.0,Calm,Calm,-,0.00,,Overcast,0,2013-10-05 05:19:00
1:53 AM,62.1,59.0,90,30.04,10.0,NW,3.5,-,0.00,,Overcast,320,2013-10-05 05:53:00
2:53 AM,61.0,59.0,93,30.04,10.0,NW,4.6,-,N/A,,Overcast,320,2013-10-05 06:53:00
3:25 AM,62.6,59.0,88,30.05,10.0,Calm,Calm,-,0.00,Rain,Light Rain,0,2013-10-05 07:25:00
3:51 AM,60.8,59.0,94,30.05,10.0,Calm,Calm,-,0.00,,Overcast,0,2013-10-05 07:51:00
3:53 AM,61.0,59.0,93,30.04,10.0,Calm,Calm,-,0.00,,Overcast,0,2013-10-05 07:53:00
4:53 AM,61.0,57.9,90,30.05,7.0,NNW,4.6,-,N/A,,Overcast,330,2013-10-05 08:53:00
5:53 AM,61.0,57.9,90,30.06,8.0,Calm,Calm,-,N/A,,Overcast,0,2013-10-05 09:53:00
6:53 AM,60.1,57.9,93,30.06,6.0,Calm,Calm,-,N/A,,Overcast,0,2013-10-05 10:53:00
7:53 AM,60.1,57.9,93,30.07,2.0,Calm,Calm,-,N/A,,Overcast,0,2013-10-05 11:53:00
8:00 AM,60.8,57.2,88,30.08,1.5,Calm,Calm,-,N/A,,Overcast,0,2013-10-05 12:00:00
8:35 AM,60.8,59.0,94,30.09,1.2,Calm,Calm,-,N/A,,Overcast,0,2013-10-05 12:35:00
8:53 AM,61.0,59.0,93,30.09,1.5,NW,4.6,-,N/A,,Overcast,320,2013-10-05 12:53:00
9:25 AM,60.8,59.0,94,30.11,2.5,North,6.9,-,N/A,,Overcast,350,2013-10-05 13:25:00
9:35 AM,60.8,59.0,94,30.11,1.8,North,4.6,-,N/A,,Overcast,350,2013-10-05 13:35:00
9:42 AM,60.8,59.0,94,30.11,3.0,NNW,4.6,-,N/A,,Overcast,340,2013-10-05 13:42:00
9:53 AM,62.1,59.0,90,30.10,5.0,NNW,4.6,-,N/A,,Overcast,340,2013-10-05 13:53:00
10:07 AM,62.6,59.0,88,30.11,4.0,Calm,Calm,-,N/A,,Overcast,0,2013-10-05 14:07:00
10:53 AM,64.0,60.1,87,30.09,8.0,Calm,Calm,-,N/A,,Overcast,0,2013-10-05 14:53:00
11:53 AM,64.9,60.1,84,30.09,10.0,Calm,Calm,-,N/A,,Overcast,0,2013-10-05 15:53:00
12:31 PM,66.2,60.8,83,30.09,10.0,Calm,Calm,-,N/A,,Overcast,0,2013-10-05 16:31:00
12:53 PM,66.9,61.0,81,30.06,10.0,Calm,Calm,-,N/A,,Overcast,0,2013-10-05 16:53:00
1:53 PM,70.0,61.0,73,30.04,10.0,Calm,Calm,-,N/A,,Mostly Cloudy,0,2013-10-05 17:53:00
2:15 PM,71.6,62.6,73,30.04,10.0,Variable,3.5,-,N/A,,Partly Cloudy,0,2013-10-05 18:15:00
2:53 PM,73.0,62.1,68,30.03,10.0,Variable,3.5,-,N/A,,Clear,0,2013-10-05 18:53:00
3:53 PM,73.9,63.0,68,30.03,10.0,Calm,Calm,-,N/A,,Clear,0,2013-10-05 19:53:00
4:53 PM,73.9,62.1,66,30.02,10.0,Calm,Calm,-,N/A,,Clear,0,2013-10-05 20:53:00
5:53 PM,73.0,63.0,71,30.01,10.0,North,3.5,-,N/A,,Clear,360,2013-10-05 21:53:00
6:53 PM,69.1,64.0,84,30.03,10.0,North,4.6,-,N/A,,Overcast,10,2013-10-05 22:53:00
7:53 PM,66.9,63.0,87,30.04,10.0,Calm,Calm,-,N/A,,Mostly Cloudy,0,2013-10-05 23:53:00
8:53 PM,66.9,63.0,87,30.05,10.0,North,3.5,-,N/A,,Overcast,10,2013-10-06 00:53:00
9:50 PM,64.4,60.8,88,30.08,10.0,NW,6.9,-,0.00,,Overcast,320,2013-10-06 01:50:00
9:53 PM,64.0,60.1,87,30.07,10.0,NNW,6.9,-,0.00,,Overcast,330,2013-10-06 01:53:00
10:18 PM,62.6,60.8,94,30.08,10.0,NW,3.5,-,0.00,,Overcast,320,2013-10-06 02:18:00
10:53 PM,62.1,59.0,90,30.09,7.0,NW,5.8,-,0.01,Rain,Light Rain,320,2013-10-06 02:53:00
11:15 PM,62.6,59.0,88,30.08,10.0,Calm,Calm,-,0.03,,Overcast,0,2013-10-06 03:15:00
11:33 PM,60.8,59.0,94,30.09,10.0,Calm,Calm,-,0.03,,Overcast,0,2013-10-06 03:33:00
11:53 PM,61.0,59.0,93,30.08,10.0,Calm,Calm,-,0.03,,Overcast,0,2013-10-06 03:53:00